Home   Weather   Gaziantep   Past weeks

Flag for Turkey Past Weather in Gaziantep, Turkey — Yesterday and Last 2 Weeks

Now
28 °F

Clear.


Feels Like: 25 °F
Forecast: 20 / 47 °F
Wind: 3 mph from Northwest

Location: Gaziantep Airport

Current Time: Jan 23, 2017 at 8:22:42 pm

Latest Report: Jan 23, 2017 at 7:50 pm


Visibility: 10 mi

Pressure: 30.24 "Hg (27.15 "Hg at 856m altitude)

Humidity: 64%

Dew Point: 18 °F

Location of GaziantepLocation

Past Weather in Gaziantep — Graph

°F

Gaziantep Temperature Yesterday

Maximum temperature yesterday: 52 °F (at 3:20 pm)
Minimum temperature yesterday: 23 °F (at 7:50 am)
Average temperature yesterday: 37 °F

High & Low Weather Summary for the Past Weeks

 TemperatureHumidityPressure
High55 °F (Jan 19, 2:20 pm)100% (Jan 9, 7:20 am)30.33 "Hg (Jan 9, 7:20 am)
Low21 °F (Jan 14, 6:20 am)16% (Jan 22, 1:50 pm)29.74 "Hg (Jan 8, 6:20 pm)
Average38 °F68%30.12 "Hg
* Reported Jan 8 6:20 pm — Jan 23 6:50 pm, Gaziantep, Weather by CustomWeather, © 2017

Note: Actual official high and low records may vary slightly from our data, if they occured in-between our weather recording intervals... More about our weather records

Advertising

Gaziantep Weather History for the Previous 24 Hours

Scroll right to see more
 ConditionsComfort  
Time TempWeatherWind HumidityBarometerVisibility
6:50 pm
Mon, Jan 23
41 °FClear.No wind36%30.24 "Hg10 mi
6:20 pm41 °FClear.No wind36%30.24 "Hg10 mi
5:50 pm46 °FClear.5 mph32%30.24 "Hg10 mi
5:20 pm48 °FSunny.6 mph29%30.24 "Hg10 mi
4:50 pm50 °FSunny.7 mph25%30.24 "Hg10 mi
4:20 pm50 °FSunny.7 mph28%30.24 "Hg10 mi
3:50 pm50 °FPassing clouds.5 mph30%30.24 "HgN/A
3:20 pm48 °FPassing clouds.5 mph27%30.21 "HgN/A
2:50 pm48 °FSunny.3 mph25%30.24 "Hg10 mi
2:20 pm48 °FSunny.5 mph25%30.24 "Hg10 mi
1:50 pm48 °FPassing clouds.6 mph27%30.24 "HgN/A
1:20 pm48 °FPassing clouds.5 mph27%30.24 "HgN/A
12:50 pm48 °FPassing clouds.6 mph25%30.27 "HgN/A
12:20 pm46 °FSunny.7 mph27%30.27 "Hg10 mi
11:50 am46 °FPassing clouds.8 mph29%30.27 "HgN/A
11:20 am45 °FPassing clouds.9 mph29%30.30 "HgN/A
10:50 am45 °FSunny.7 mph29%30.30 "Hg10 mi
10:20 am43 °FPassing clouds.6 mph31%30.30 "HgN/A
9:50 am43 °FSunny.3 mph29%30.27 "Hg10 mi
9:20 am36 °FSunny.1 mph56%30.27 "Hg10 mi
8:50 am30 °FSunny.2 mph64%30.27 "Hg10 mi
8:20 am23 °FSunny.3 mph74%30.27 "Hg10 mi
7:50 am21 °FPassing clouds.3 mph74%30.27 "HgN/A
7:20 am25 °FClear.3 mph69%30.27 "Hg10 mi
6:50 am27 °FClear.1 mph64%30.27 "Hg10 mi
6:20 am21 °FClear.2 mph74%30.24 "Hg10 mi
5:50 am25 °FClear.2 mph63%30.24 "Hg10 mi
5:20 am25 °FClear.2 mph69%30.24 "Hg10 mi
4:50 am30 °FClear.6 mph47%30.24 "Hg10 mi
4:20 am32 °FPassing clouds.5 mph40%30.24 "HgN/A
3:50 am30 °FClear.3 mph51%30.24 "Hg10 mi
3:20 am28 °FClear.1 mph59%N/A10 mi
2:50 am34 °FClear.6 mph38%30.24 "Hg10 mi
2:20 am28 °FClear.3 mph59%30.24 "Hg10 mi
1:50 am25 °FClear.No wind69%30.24 "Hg10 mi
1:20 am28 °FClear.1 mph64%30.21 "Hg10 mi
12:50 am27 °FClear.No wind64%30.21 "Hg10 mi
12:20 am25 °FClear.No wind69%30.24 "Hg10 mi
11:50 pm
Sun, Jan 22
30 °FClear.6 mph55%30.24 "Hg10 mi
11:20 pm34 °FClear.No wind48%30.24 "Hg10 mi
10:50 pm28 °FClear.No wind59%30.24 "Hg10 mi
10:20 pm30 °FClear.2 mph59%30.24 "Hg10 mi
9:50 pm30 °FClear.1 mph55%30.21 "Hg10 mi
9:20 pm28 °FClear.3 mph64%30.21 "Hg10 mi
8:50 pm32 °FClear.2 mph64%30.21 "Hg10 mi
8:20 pm37 °FClear.1 mph38%30.21 "Hg10 mi
Weather by CustomWeather, © 2017

See weather overviewHow to use our weather pages